Content
SEND FEEDBACK

Daily
Averages
Monthly
Summary
Canada

QUEBEC CITY, QUEBEC


Home > North America > Canada > Quebec
Elevation: 72 meters     Latitude: 46 48N     Longitude: 071 23W

WEATHER
 
SELECT A DAY
Number of Records: 192,807;   Date Range: 6/30/96 - 9/17/14
 
SHARE

PRINT THIS DATA

[ ← Previous Day ]
WEATHER ALMANAC - 21 JUNE, 2013
[ Next Day → ]
[ °F ]   °C
Weather ElementAverageHighLow
Temperature19 °C25 °C (3:00 pm)13 °C (1:00 am)
Dewpoint8.4 °C13 °C (9:00 am) (7:00 pm)
Humidity56.1 %82 % (5:00 am)23 % (5:00 pm)
Barometer959.4 hPa1022.4 hPa (10:00 am) (7:00 pm)
Wind Speed13.7 km/h25.9 km/h (1:00 pm)
Wind Gust38.9 km/h (3:00 pm)
Weather ElementAverage
Visibility42.5 km
Wind DirectionSW (226.1 °)

Weather ElementTotal
Precipitation---
Cooling Degree Days0.7 (Base 18.3)
Growing Degree Days9 (Base 10)
Averaged from 33 records on 21 June, 2013
WEATHER CONDITIONS BREAKOUT
WIND DIRECTION BREAKOUT
WEATHER BY HOUR - 21 JUNE, 2013
[ °F ]   °C
Local TimeTemperatureDewpointHumidityBarometerVisibilityWind DirectionWind SpeedGust SpeedPrecipitationEventsConditions
1:00 AM13 °C9 °C77 %1021.3 hPa24.1 kmWSW (250°)13 km/hPartly Cloudy
2:00 AM13.9 °C10 °C72 %1020.7 hPaWest (270°)7.4 km/h
2:00 AM15 °C10 °C72 %1021 hPa24.1 kmWSW (240°)16.7 km/hMostly Cloudy
3:00 AM15 °C10 °C72 %1020.7 hPa24.1 kmWSW (240°)22.2 km/hMostly Cloudy
4:00 AM15 °C10 °C72 %1020.7 hPa24.1 kmWSW (250°)14.8 km/hMostly Cloudy
5:00 AM14.4 °C10.6 °C72 %1020.3 hPaWSW (250°)7.4 km/h
5:00 AM14 °C11 °C82 %1021 hPa48.3 kmWSW (240°)7.4 km/hMostly Cloudy
6:00 AM14 °C10 °C77 %1021 hPa48.3 kmSW (220°)13 km/hMostly Cloudy
6:55 AM15 °C-17.8 °C48.3 kmSW (230°)13 km/hRainLight Rain Showers
7:00 AM14 °C11 °C82 %1021.3 hPa48.3 kmSW (230°)13 km/hRainLight Rain Showers
7:35 AM15 °C-17.8 °C48.3 kmSW (230°)14.8 km/hMostly Cloudy
8:00 AM15.6 °C12.2 °C76 %1020.7 hPaWSW (250°)11.1 km/h
8:00 AM16 °C12 °C77 %1021.3 hPa48.3 kmSW (230°)18.5 km/hPartly Cloudy
9:00 AM18 °C13 °C73 %1022 hPa48.3 kmSW (230°)14.8 km/hPartly Cloudy
10:00 AM21 °C13 °C60 %1022.4 hPa48.3 kmSW (230°)14.8 km/hPartly Cloudy
11:00 AM22 °C12 °C53 %1022 hPa48.3 kmSW (220°)20.4 km/hPartly Cloudy
11:00 AM21.1 °C12.8 °C48 %1021.3 hPaSW (220°)11.1 km/h
12:00 PM23 °C12 °C50 %1022 hPa48.3 kmWSW (250°)18.5 km/hScattered Clouds
1:00 PM24 °C10 °C41 %1021.7 hPa48.3 kmWNW (290°)25.9 km/h37 km/hPartly Cloudy
2:00 PM23.9 °C8.9 °C27 %1020.7 hPaWest (280°)20.4 km/h
2:00 PM24 °C9 °C38 %1021.7 hPa48.3 kmWNW (290°)18.5 km/h29.6 km/hPartly Cloudy
3:00 PM25 °C8 °C34 %1021.7 hPa48.3 kmWest (270°)24.1 km/h38.9 km/hPartly Cloudy
4:00 PM25 °C8 °C34 %1021.7 hPa48.3 kmWest (270°)18.5 km/h33.3 km/hPartly Cloudy
5:00 PM25 °C8 °C34 %1021.3 hPa48.3 kmWNW (290°)14.8 km/hPartly Cloudy
5:00 PM24.4 °C7.8 °C23 %1020.7 hPaWest (270°)18.5 km/h
6:00 PM25 °C8 °C34 %1021.3 hPa48.3 kmWNW (290°)18.5 km/hPartly Cloudy
7:00 PM24 °C8 °C36 %1021.7 hPa48.3 kmWNW (290°)14.8 km/hPartly Cloudy
8:00 PM21.1 °C11.1 °C41 %1020.7 hPaNW (310°)5.6 km/h
8:00 PM23 °C8 °C38 %1021.7 hPa48.3 kmWest (260°)5.6 km/hPartly Cloudy
9:00 PM19 °C10 °C56 %1021.7 hPa48.3 kmNNE (30°)5.6 km/hPartly Cloudy
10:00 PM17 °C10 °C63 %1022 hPa24.1 kmCalmScattered Clouds
11:00 PM15 °C9.4 °C62 %1021.3 hPaNNE (20°)1.9 km/h
11:00 PM16 °C9 °C63 %1022 hPa24.1 kmNNE (20°)7.4 km/hMostly Cloudy
Hourly data recorded from CYQB, located 0 kilometers away from Quebec City, Quebec







STORIES FROM OUR PARTNERS